Visibility
15.0 15.0 15.0 15.0 15.0 12.2 0.0 0.1 0.0 13.7 15.0 15.0 13.9 3.2 3.1 15.0 15.0 15.0 15.0 15.0 15.0 15.0 15.0 12.0 7.7 7.2 6.5 15.0 12.6 15.0 14.9 13.0 15.0 15.0 15.0 15.0 15.0 15.0 15.0 15.0 15.0 15.0 15.0 15.0
15.0 15.0 14.1 15.0 15.0 15.0 15.0 0.5 3.3 14.8 15.0 15.0 13.8 4.8 2.4 9.3 10.9 15.0 15.0 15.0 15.0 15.0 15.0 15.0 15.0 15.0 15.0 15.0 15.0 14.9 15.0 14.9 14.8 14.8 14.9 14.9 14.9 15.0 15.0 15.0 15.0 15.0 15.0 15.0
15.0 15.0 15.0 15.0 15.0 15.0 15.0 15.0 13.5 0.7 15.0 15.0 15.0 14.6 6.5 9.2 15.0 15.0 15.0 15.0 15.0 15.0 15.0 15.0 15.0 15.0 15.0 15.0 15.0 9.8 14.2 7.8 13.2 11.6 5.9 7.6 4.4 14.8 14.3 9.5 15.0 15.0 15.0 15.0
15.0 15.0 15.0 15.0 9.9 15.0 12.3 9.8 15.0 15.0 14.1 15.0 6.6 14.5 15.0 15.0 15.0 15.0 15.0 15.0 15.0 15.0 15.0 15.0 15.0 15.0 15.0 15.0 15.0 15.0 15.0 15.0 15.0 15.0 11.4 11.5 7.0 4.6 5.8 8.9 8.2 15.0 15.0 15.0
15.0 15.0 15.0 15.0 15.0 15.0 14.9 14.5 15.0 15.0 13.4 15.0 15.0 12.0 15.0 15.0 15.0 15.0 15.0 15.0 15.0 15.0 15.0 15.0 15.0 15.0 15.0 15.0 15.0 15.0 15.0 15.0 11.9 9.2 15.0 15.0 15.0 6.8 7.7 8.9 8.3 7.3 5.5 4.7
15.0 15.0 15.0 15.0 15.0 15.0 15.0 13.7 15.0 15.0 9.6 15.0 15.0 15.0 15.0 15.0 15.0 15.0 15.0 15.0 15.0 15.0 15.0 15.0 15.0 15.0 15.0 15.0 15.0 15.0 15.0 15.0 15.0 15.0 15.0 9.5 0.1 0.3 8.1 15.0 15.0 8.8 7.9 8.3
15.0 13.7 15.0 15.0 15.0 15.0 11.7 14.4 15.0 15.0 15.0 12.3 13.0 15.0 15.0 15.0 15.0 15.0 15.0 15.0 15.0 15.0 15.0 15.0 15.0 15.0 15.0 15.0 15.0 15.0 15.0 15.0 15.0 15.0 15.0 15.0 15.0 0.4 0.4 0.2 7.4 6.1 5.7 0.2
7.5 1.7 1.2 15.0 14.0 4.9 15.0 15.0 15.0 15.0 15.0 15.0 15.0 15.0 15.0 15.0 15.0 15.0 15.0 15.0 15.0 15.0 15.0 15.0 15.0 15.0 15.0 15.0 15.0 15.0 15.0 15.0 15.0 15.0 15.0 15.0 15.0 15.0 15.0 0.1 0.1 0.1 0.1 0.1
15.0 15.0 15.0 15.0 15.0 15.0 15.0 10.5 15.0 15.0 15.0 15.0 15.0 15.0 15.0 15.0 15.0 15.0 15.0 15.0 15.0 15.0 15.0 15.0 15.0 15.0 15.0 15.0 15.0 15.0 15.0 15.0 15.0 15.0 15.0 15.0 15.0 15.0 15.0 15.0 0.9 1.1 1.9 1.0
1.8 4.2 15.0 15.0 11.6 14.1 15.0 13.4 9.8 15.0 15.0 15.0 15.0 15.0 15.0 15.0 15.0 15.0 15.0 15.0 15.0 15.0 15.0 15.0 15.0 15.0 15.0 15.0 15.0 15.0 15.0 15.0 15.0 15.0 15.0 15.0 15.0 15.0 0.3 0.6 15.0 15.0 2.7 0.8
0.0 0.0 0.1 0.2 6.8 8.4 15.0 15.0 15.0 7.8 15.0 15.0 15.0 15.0 15.0 15.0 15.0 15.0 15.0 15.0 15.0 15.0 15.0 15.0 15.0 15.0 15.0 15.0 15.0 15.0 15.0 15.0 15.0 15.0 15.0 15.0 3.9 0.5 2.8 0.9 12.6 12.1 4.6 4.9
0.1 0.0 0.0 0.0 4.8 8.9 8.7 14.8 15.0 15.0 15.0 15.0 15.0 15.0 15.0 15.0 15.0 15.0 15.0 15.0 15.0 15.0 15.0 15.0 15.0 15.0 15.0 15.0 15.0 15.0 15.0 15.0 11.4 13.2 15.0 15.0 15.0 2.0 1.0 1.6 9.5 13.3 12.2 7.0
0.0 0.0 0.0 1.4 7.6 14.7 15.0 15.0 15.0 15.0 15.0 15.0 15.0 15.0 15.0 15.0 15.0 15.0 15.0 15.0 15.0 5.9 10.1 13.5 15.0 11.1 8.4 5.2 15.0 8.3 4.5 11.3 15.0 15.0 15.0 7.5 15.0 15.0 0.9 8.0 1.5 0.4 0.2 0.2
0.2 4.7 12.1 15.0 8.8 15.0 15.0 15.0 15.0 15.0 15.0 15.0 15.0 15.0 15.0 15.0 15.0 15.0 9.9 11.8 15.0 15.0 15.0 10.3 12.4 0.8 0.6 5.2 10.4 1.4 0.9 1.1 2.3 2.2 2.2 1.3 2.7 4.2 14.7 7.6 0.9 0.5 0.5 0.2
8.8 1.6 7.7 15.0 15.0 15.0 15.0 15.0 15.0 15.0 15.0 15.0 15.0 15.0 15.0 15.0 6.6 1.3 2.2 15.0 15.0 15.0 15.0 14.9 15.0 0.8 1.6 15.0 7.7 4.2 1.4 0.2 0.2 0.2 0.4 0.5 0.5 0.7 5.7 5.5 1.7 0.3 1.9 5.0
15.0 15.0 15.0 15.0 15.0 15.0 15.0 15.0 15.0 5.5 6.3 15.0 15.0 13.1 7.7 12.1 6.1 3.1 4.0 8.4 5.9 0.6 0.5 1.6 1.9 0.2 0.5 1.5 0.7 0.6 2.1 6.9 1.4 0.2 0.3 0.8 0.3 0.2 0.5 2.4 4.8 5.2 2.7 0.3
15.0 14.1 14.8 2.2 4.7 14.9 15.0 15.0 14.9 14.6 13.7 3.9 0.2 5.1 15.0 14.9 8.9 3.4 1.1 0.6 0.7 0.5 0.3 0.3 0.1 0.4 0.6 1.1 5.5 1.3 0.5 1.4 9.2 1.8 0.4 0.2 0.1 0.1 0.2 0.6 1.1 1.1 0.2 0.2
15.0 11.1 2.9 2.9 2.0 11.5 15.0 15.0 14.0 2.1 0.6 0.3 0.5 1.1 0.8 0.6 0.2 0.2 0.2 0.3 1.2 1.2 0.6 0.2 0.3 0.7 1.3 1.7 1.0 0.3 0.3 0.4 0.4 0.2 0.1 0.1 0.1 0.1 0.1 0.1 0.1 0.2 0.1 0.2
15.0 15.0 4.3 3.9 10.0 15.0 15.0 3.7 1.8 1.2 0.6 0.6 1.0 0.4 0.3 0.3 0.2 0.2 0.3 1.1 1.3 1.6 0.2 0.3 0.5 1.3 1.5 1.1 2.5 0.8 0.4 0.2 0.2 0.2 0.1 0.1 0.1 0.1 0.1 0.4 1.7 3.0 6.4 5.2
15.0 15.0 15.0 4.4 3.5 9.1 1.1 0.6 1.4 1.1 0.5 3.5 4.6 1.5 0.6 0.4 0.5 0.5 0.8 0.3 0.2 0.1 0.2 0.3 0.9 1.2 1.5 1.2 1.9 1.0 0.5 0.4 0.5 0.4 1.8 2.7 2.4 1.9 2.1 3.0 3.2 2.6 3.2 2.9
3.3 4.3 1.9 1.6 0.6 0.8 0.7 0.9 2.2 0.8 0.3 1.0 1.1 0.6 0.4 0.2 0.2 0.2 0.7 0.9 0.6 3.9 10.0 15.0 5.5 14.1 15.0 15.0 15.0 14.1 9.4 8.1 6.2 4.4 3.7 2.8 3.2 3.5 3.1 3.5 3.2 3.2 2.1 2.2
4.1 3.4 1.8 3.3 2.9 0.8 0.5 0.6 1.1 0.7 0.5 0.5 0.6 1.1 2.5 12.0 15.0 15.0 6.5 2.7 10.7 15.0 14.4 13.9 15.0 15.0 15.0 15.0 15.0 14.8 15.0 14.3 8.6 14.3 8.0 5.9 5.7 6.4 3.2 5.0 3.5 3.1 2.1 2.8
4.1 5.3 13.0 5.0 3.8 1.1 2.1 3.7 3.1 3.3 1.3 1.1 2.3 13.8 15.0 15.0 15.0 15.0 11.0 15.0 15.0 14.3 15.0 14.1 15.0 15.0 15.0 15.0 9.1 6.8 10.8 8.6 5.7 8.9 14.4 15.0 9.8 5.1 3.3 2.0 1.5 4.4 4.1 4.0
4.1 12.4 5.3 4.1 6.6 15.0 3.9 2.3 12.8 15.0 14.5 13.8 0.7 0.9 15.0 3.8 1.1 3.9 15.0 15.0 15.0 15.0 5.0 15.0 15.0 15.0 15.0 15.0 15.0 15.0 15.0 15.0 15.0 15.0 14.3 5.7 13.4 14.9 8.4 1.8 1.8 1.7 3.0 4.3
4.1 3.0 1.1 2.9 4.3 4.1 6.6 4.0 1.6 0.7 14.1 14.9 13.7 15.0 15.0 15.0 12.2 7.0 11.6 13.3 15.0 15.0 15.0 15.0 15.0 15.0 6.1 13.8 15.0 15.0 14.7 11.2 11.4 5.1 11.5 15.0 5.2 3.4 2.5 1.5 1.8 2.9 4.1 6.8
0.8 0.6 0.2 0.2 0.3 0.6 1.3 0.5 0.7 10.2 15.0 11.0 14.1 4.8 5.7 6.4 12.1 10.4 10.2 8.6 7.8 15.0 15.0 15.0 15.0 15.0 15.0 9.4 15.0 15.0 15.0 11.7 15.0 11.5 3.7 4.3 9.4 4.2 4.2 3.4 2.1 1.4 2.5 4.0
2.1 0.9 0.5 0.4 0.7 0.7 0.7 1.5 1.7 0.6 4.7 7.1 4.7 6.9 11.7 4.1 3.6 6.7 8.0 12.2 1.4 1.3 2.8 7.3 15.0 15.0 15.0 9.7 4.3 4.8 10.0 4.7 4.1 6.1 4.0 2.6 4.5 4.1 4.1 4.3 3.8 2.3 3.1 3.2